Ann Arbor, MI

7:54 AM EST on February 24, 2017 (GMT -0500)
Ann Arbor Municipal

Weather History for KARB - March, 2014

Change the Weather History Date:

Tuesday, March 18, 2014

  Actual Average Record
Temperature  
Mean Temperature 32 °F -  
Max Temperature 44 °F 42 °F 71 °F (2012)
Min Temperature 19 °F 24 °F 17 °F (2001)
Degree Days  
Heating Degree Days 34    
Moisture  
Dew Point 23 °F    
Average Humidity 70    
Maximum Humidity 85    
Minimum Humidity 55    
Precipitation  
Precipitation 0.00 in - - ()
Sea Level Pressure  
Sea Level Pressure 29.99 in    
Wind  
Wind Speed 5 mph (ESE)    
Max Wind Speed 13 mph    
Max Gust Speed -    
Visibility 10 miles    
Events      
Averages and records for this station are not official NWS values.
T = Trace of Precipitation, MM = Missing Value Source: NWS Daily Summary

Daily Weather History Graph

Daily Weather History Graph

Search for Another Location

Airport or City:

Trip Planner

Search our weather history database for the weather conditions in past years. The results will help you decide how hot, cold, wet, or windy it might be!

Date:

Astronomy

Mar. 18, 2014 Rise Set
Actual Time 7:41 AM EDT 7:44 PM EDT
Civil Twilight 7:13 AM EDT 8:12 PM EDT
Nautical Twilight 6:41 AM EDT 8:45 PM EDT
Astronomical Twilight 6:08 AM EDT 9:18 PM EDT
Moon 10:04 PM EDT (3/18) 8:28 AM EDT (3/18)
Length of Visible Light 12h 59m
Length of Day
12h 03m
Waning Gibbous, 96% of the Moon is Illuminated
Mar 18
Waning Gibbous
Mar 23
Last Quarter
Mar 30
New
Apr 7
First Quarter
Apr 15
Full

Hourly Weather History & Observations

Time (EDT) Temp. Windchill Dew Point Humidity Pressure Visibility Wind Dir Wind Speed Gust Speed Precip Events Conditions
12:53 AM 23.0 °F - 15.1 °F 72% 29.98 in 10.0 mi Calm Calm - N/A   Clear
1:53 AM 23.0 °F 18.4 °F 15.1 °F 72% 29.99 in 10.0 mi East 3.5 mph - N/A   Clear
2:53 AM 23.0 °F 17.0 °F 15.1 °F 72% 29.98 in 10.0 mi East 4.6 mph - N/A   Clear
3:53 AM 23.0 °F - 16.0 °F 74% 29.99 in 10.0 mi Calm Calm - N/A   Partly Cloudy
4:53 AM 19.9 °F - 16.0 °F 85% 30.00 in 10.0 mi Calm Calm - N/A   Clear
5:53 AM 19.9 °F - 16.0 °F 85% 30.00 in 10.0 mi Calm Calm - N/A   Clear
6:53 AM 21.9 °F 15.7 °F 17.1 °F 82% 30.00 in 10.0 mi ENE 4.6 mph - N/A   Clear
7:53 AM 23.0 °F - 18.0 °F 81% 30.01 in 10.0 mi Calm Calm - N/A   Clear
8:53 AM 26.1 °F 19.4 °F 21.0 °F 81% 30.02 in 9.0 mi East 5.8 mph - N/A   Clear
9:53 AM 28.9 °F 21.9 °F 23.0 °F 78% 30.03 in 10.0 mi ESE 6.9 mph - N/A   Clear
10:53 AM 34.0 °F 28.8 °F 24.1 °F 67% 30.03 in 10.0 mi ESE 5.8 mph - N/A   Clear
11:53 AM 37.0 °F 31.0 °F 26.1 °F 65% 30.02 in 10.0 mi East 8.1 mph - N/A   Clear
12:53 PM 41.0 °F 35.2 °F 28.0 °F 60% 30.04 in 10.0 mi SE 9.2 mph - N/A   Clear
1:53 PM 42.1 °F 36.1 °F 28.0 °F 58% 30.04 in 10.0 mi ESE 10.4 mph - N/A   Clear
2:53 PM 44.1 °F 37.7 °F 28.9 °F 55% 30.02 in 10.0 mi ESE 12.7 mph - N/A   Clear
3:53 PM 42.1 °F 35.7 °F 28.0 °F 58% 30.01 in 10.0 mi SE 11.5 mph - N/A   Clear
4:53 PM 43.0 °F 38.2 °F 28.0 °F 56% 30.01 in 10.0 mi SE 8.1 mph - N/A   Clear
5:53 PM 43.0 °F 37.7 °F 28.9 °F 58% 29.98 in 10.0 mi ESE 9.2 mph - N/A   Clear
6:53 PM 42.1 °F 36.1 °F 28.9 °F 60% 29.95 in 10.0 mi ESE 10.4 mph - N/A   Clear
7:53 PM 39.9 °F 33.4 °F 28.9 °F 65% 29.94 in 10.0 mi East 10.4 mph - N/A   Clear
8:53 PM 37.9 °F 30.5 °F 28.9 °F 70% 29.94 in 10.0 mi East 11.5 mph - N/A   Clear
9:53 PM 36.0 °F 27.5 °F 28.0 °F 73% 29.91 in 10.0 mi East 12.7 mph - N/A   Clear
10:53 PM 36.0 °F 31.1 °F 27.0 °F 70% 29.91 in 10.0 mi East 5.8 mph - N/A   Clear
11:53 PM 35.1 °F 29.3 °F 27.0 °F 72% 29.88 in 10.0 mi East 6.9 mph - N/A   Clear